Tracking 31027 objects as of 19-Jul-2025
HD Live streaming from Space Station
objects crossing your sky now

STARLINK-31181

Track STARLINK-31181 now!
10-day predictions
STARLINK-31181 is classified as:


NORAD ID: 58746
Int'l Code: 2024-005U
Perigee: 488.2 km
Apogee: 492.1 km
Inclination: 43.0 °
Period: 94.3 minutes
Semi major axis: 6861 km
RCS: Unknown
Launch date: January 7, 2024
Source: United States (US)
Launch site: AIR FORCE EASTERN TEST RANGE (AFETR)
Your satellite tracking list
KORSAT 7
Track 1 satellite(s)




NASA's NSSDC Master Catalog

Two Line Element Set (TLE):
1 58746U 24005U   25199.61655509 -.00000902  00000-0 -23217-4 0  9996
2 58746  43.0126 309.4445 0002773 280.4227  79.6312 15.27593452 86488
Source of the keplerian elements: AFSPC